Probability
0 0 0 0 0 0 0 0 0 0 0 0 0 0 0 0 0 0 0 0 0 0 0 0 0 0 0 0 0 0 0 0 0 0 0 0 0 0 0 0 0 0 0
0 0 0 0 0 0 0 0 0 0 0 0 0 0 0 0 0 0 0 0 0 0 0 0 0 0 0 0 0 0 0 0 0 0 0 0 0 0 0 0 0 0 0
0 0 0 0 0 0 0 0 0 0 0 0 0 0 0 0 0 0 0 0 0 0 0 0 0 0 0 0 0 0 0 0 0 0 0 0 0 0 0 0 0 0 0
0 0 0 0 0 0 0 0 0 0 0 0 0 0 0 0 0 0 0 0 0 0 0 0 0 0 0 0 0 0 0 0 0 0 0 0 0 0 0 0 0 0 0
0 0 0 0 0 0 0 0 0 0 0 0 0 0 0 0 0 0 0 0 0 0 0 0 0 0 0 0 0 0 0 0 0 0 0 0 0 0 0 0 0 0 0
0 0 0 0 0 0 0 0 0 0 0 0 0 0 0 0 0 0 0 0 0 0 0 0 0 0 0 0 0 0 0 0 0 0 0 0 0 0 0 0 0 0 0
0 0 0 0 0 0 0 0 0 0 0 0 0 0 0 0 0 0 0 0 0 0 0 0 0 0 0 0 0 0 0 0 0 0 0 0 0 0 0 0 0 0 0
0 0 0 0 0 0 0 0 0 0 0 0 0 0 0 0 0 0 0 0 0 0 0 0 0 0 0 0 0 0 0 0 0 0 0 0 0 0 0 0 0 0 0
0 0 0 0 0 0 0 0 0 0 0 0 0 0 0 0 0 0 0 0 0 0 0 0 0 0 0 0 0 0 0 0 0 0 0 0 0 0 0 0 0 0 0
0 0 0 0 0 0 0 0 0 0 0 0 0 0 0 0 0 0 0 0 0 0 0 0 0 0 0 0 0 0 0 0 0 0 0 0 0 0 0 0 0 0 0
0 0 0 0 0 0 0 0 0 0 0 0 0 0 0 0 0 0 0 0 0 0 0 0 0 0 0 0 0 0 0 0 0 0 0 0 0 0 0 0 0 0 0
0 0 0 0 0 0 0 0 0 0 0 0 0 0 0 0 0 0 0 0 0 0 0 0 0 0 0 0 0 0 0 0 0 0 0 0 0 0 0 0 0 0 0
2 4 4 3 1 0 0 0 0 0 0 0 0 0 0 0 0 0 0 0 0 0 0 0 0 0 0 0 0 0 0 0 0 0 0 0 0 0 0 0 0 0 0
3 9 14 13 7 1 0 0 0 0 0 0 0 0 0 0 0 0 0 0 0 0 0 0 0 0 0 0 0 0 0 0 0 0 0 0 0 0 0 0 0 0 0
2 7 18 24 15 4 0 0 0 0 0 0 0 0 0 0 0 0 0 0 0 0 0 0 0 0 0 0 0 0 0 0 0 0 0 0 0 0 0 0 0 0 0
0 2 12 23 20 7 1 0 0 0 0 0 0 0 0 0 0 0 0 0 0 0 0 0 0 0 0 0 0 0 0 0 0 0 0 0 0 0 0 0 0 0 0
0 0 5 14 16 7 1 0 0 0 0 0 0 0 0 0 0 0 0 0 0 0 0 0 0 0 0 0 0 0 0 0 0 0 0 0 0 0 0 0 0 0 0
0 0 2 7 8 4 0 0 0 0 0 0 0 0 0 0 0 0 0 0 0 0 0 0 0 0 0 0 0 0 0 0 0 0 0 0 0 0 0 0 0 0 0
0 0 1 4 4 2 0 0 0 0 0 0 0 0 0 0 0 0 0 0 0 0 0 0 0 0 0 0 0 0 0 0 0 0 0 0 0 0 0 0 0 0 0
0 0 2 3 3 1 0 0 0 0 0 0 0 0 0 0 0 0 0 0 0 0 0 0 0 0 0 0 0 0 0 0 0 0 0 0 0 0 0 0 0 0 0
0 1 3 4 2 0 0 0 0 0 0 0 0 0 0 0 0 0 0 0 0 0 0 0 0 0 0 0 0 0 0 0 0 0 0 0 0 0 0 0 0 0 0
0 1 3 2 1 0 0 0 0 0 0 0 0 0 0 0 0 0 0 0 0 0 0 0 0 0 0 0 0 0 0 0 0 0 0 0 0 0 0 0 0 0 0
0 0 1 0 0 0 0 0 0 0 0 0 0 0 0 0 0 0 0 0 0 0 0 0 0 0 0 0 0 0 0 0 0 0 0 0 0 0 0 0 0 0 0
0 0 0 0 0 0 0 0 0 0 0 0 0 0 0 0 0 0 0 0 0 0 0 0 0 0 0 0 0 0 0 0 0 0 0 0 0 0 0 0 0 0 0
0 0 0 0 0 0 0 0 0 0 0 0 0 0 0 0 0 0 0 0 0 0 0 0 0 0 0 0 0 0 0 0 0 0 0 0 0 0 0 0 0 0 0
0 0 0 0 0 0 0 0 0 0 0 0 0 0 0 0 0 0 0 0 0 0 0 0 0 0 0 0 0 0 0 0 0 0 0 0 0 0 0 0 0 0 0
Wind_Speed
4 5 13 15 15 15 14 12 10 8 8 7 6 8 10 11 10 9 8 6 5 5 5 5 7 10 8 5 6 7 5 4 5 7 7 6 5 5 5 4 3 1 5
7 8 13 14 15 15 14 12 10 8 7 6 6 9 10 10 9 8 6 5 4 4 5 4 5 6 8 8 7 5 3 2 4 5 6 5 5 5 6 4 2 2 5
7 9 10 13 14 15 14 13 10 9 8 7 7 8 9 8 7 6 5 4 3 4 5 5 5 5 5 6 5 4 3 4 4 5 5 3 4 6 6 5 3 4 6
8 8 7 12 14 15 15 13 11 9 8 8 7 7 6 6 7 6 6 5 3 3 4 4 4 5 4 4 3 4 4 4 3 3 2 2 3 7 7 7 7 6 6
8 7 8 13 14 15 15 13 12 10 9 8 7 5 4 5 6 7 7 5 4 3 2 3 3 3 3 3 3 4 4 4 3 2 1 2 3 7 9 9 7 7 7
7 6 8 12 13 15 15 13 12 11 9 8 7 5 4 3 5 7 8 6 5 4 2 1 1 2 3 4 5 6 5 4 2 1 3 3 3 8 10 10 10 9 9
6 6 7 13 13 15 14 13 12 11 9 9 8 7 5 2 2 5 8 8 7 5 3 2 3 4 5 6 7 8 8 6 2 3 4 4 5 10 11 11 11 11 12
6 6 6 13 12 13 14 13 12 11 9 8 8 7 6 1 4 3 5 7 6 5 4 4 6 7 8 8 8 8 8 6 5 3 4 5 9 13 12 12 12 13 14
5 5 5 6 8 12 12 12 11 10 9 8 8 7 5 2 2 3 2 6 5 4 4 6 7 8 8 8 9 9 7 7 4 3 5 4 10 13 13 13 13 13 14
5 5 5 5 5 6 7 10 10 9 8 8 7 5 4 2 1 2 1 3 3 3 5 7 8 8 8 9 10 10 8 6 3 4 3 6 13 14 14 14 14 14 15
6 5 5 5 5 5 6 7 8 8 7 8 5 5 3 1 1 2 2 3 4 5 6 8 9 10 9 9 11 11 8 3 4 3 3 8 12 13 14 13 13 13 14
9 9 7 7 6 5 5 4 3 3 4 4 3 3 2 1 1 2 3 4 4 5 6 8 10 10 8 5 7 9 4 5 4 3 4 10 9 10 11 12 12 12 12
7 9 9 9 7 6 4 3 3 2 3 3 4 3 2 2 1 2 2 2 3 4 4 7 8 6 5 5 4 4 5 4 3 3 5 11 10 9 10 12 13 14 14
6 8 8 9 8 7 5 4 4 3 3 3 3 4 3 2 2 2 2 2 3 3 5 5 4 5 5 5 5 5 5 4 3 3 5 14 15 16 17 17 17 17 17
8 9 10 10 10 8 6 4 4 4 4 4 3 3 3 3 3 3 3 4 5 4 5 4 4 5 5 5 5 5 6 6 5 5 4 14 18 19 20 19 18 18 18
10 11 10 12 11 9 7 6 5 4 4 3 3 4 5 4 5 5 5 5 5 4 4 4 4 4 4 3 5 5 5 5 5 5 5 9 18 20 20 20 19 18 18
9 8 9 11 12 11 9 7 5 5 5 4 4 6 7 6 6 6 5 5 4 4 4 4 4 4 4 5 4 4 4 4 4 5 6 5 7 15 19 21 20 18 18
7 6 8 10 12 11 9 7 6 6 6 6 6 6 8 7 7 7 6 5 4 4 4 4 4 4 5 5 4 3 3 3 4 4 4 5 4 6 11 19 18 17 17
6 6 8 9 12 12 10 8 8 7 6 6 6 7 7 8 8 7 6 4 4 5 4 4 4 4 4 6 5 3 2 1 2 3 4 4 4 4 4 11 16 15 16
5 7 9 11 12 13 11 9 8 8 7 6 6 7 8 8 8 7 6 6 5 5 5 4 4 4 3 4 6 5 3 1 1 2 2 2 3 4 5 5 5 8 14
5 8 11 13 13 12 10 9 8 7 6 6 6 8 8 8 7 7 6 6 6 6 5 5 3 5 4 4 4 5 4 2 2 1 0 1 2 4 5 6 5 4 5
6 9 11 12 11 10 9 6 5 7 6 6 6 6 6 7 7 7 7 5 5 5 6 6 5 3 4 4 3 3 5 6 4 3 2 2 3 5 5 7 6 6 6
7 10 11 12 11 11 12 10 10 7 6 5 5 4 5 7 8 7 7 6 6 5 5 5 5 4 3 3 3 3 2 3 5 5 4 3 3 4 5 5 7 8 8
7 8 10 11 12 13 14 14 15 9 7 5 4 4 5 6 7 7 7 7 6 5 5 4 4 3 2 2 2 1 1 3 3 6 4 3 3 6 6 7 8 9 9
8 9 11 11 12 13 12 15 13 9 7 6 6 8 6 5 6 7 6 6 6 5 5 4 4 3 1 1 1 2 2 2 2 3 7 5 5 4 5 7 7 7 7
8 9 11 13 12 11 11 11 13 15 14 12 8 7 5 4 5 6 6 6 5 4 4 3 2 2 1 0 1 1 1 2 2 3 5 9 9 6 8 7 6 5 6
Wind_Direction
208 190 186 165 160 158 154 151 146 140 138 137 149 159 154 145 138 132 124 115 94 68 48 38 28 32 55 95 119 109 95 63 22 10 11 12 359 328 298 280 255 314 292
166 171 184 168 166 163 156 152 149 148 147 145 150 152 146 140 134 133 134 130 104 66 49 45 41 36 43 53 68 78 75 28 356 358 16 29 8 333 304 297 214 248 279
148 164 181 169 169 161 156 153 153 156 157 152 148 147 144 143 145 151 155 147 122 81 54 48 49 49 46 40 38 27 11 355 348 347 23 27 352 342 311 281 232 269 288
149 156 164 166 164 159 157 156 159 161 160 156 156 158 160 162 167 174 173 167 150 106 69 59 58 54 48 35 14 351 337 337 348 347 32 7 345 331 322 282 239 244 271
147 150 158 162 162 161 161 162 164 166 166 164 162 161 176 190 204 198 193 183 168 134 98 71 61 41 24 8 350 336 333 336 353 356 330 323 321 314 311 300 275 262 275
151 150 160 163 165 165 166 167 170 172 174 173 170 173 190 211 232 223 205 187 175 172 173 130 21 350 344 330 319 316 316 318 346 260 277 286 287 293 292 289 288 275 265
159 159 165 169 172 170 170 172 175 178 181 180 183 192 197 212 300 247 209 187 180 191 215 268 306 324 330 327 322 320 327 335 313 257 268 272 271 281 283 276 273 273 267
168 170 171 178 176 174 174 176 179 183 186 183 186 199 200 199 5 357 190 180 184 209 252 293 313 321 324 325 324 324 324 322 314 280 265 264 272 283 285 280 273 269 271
174 177 180 180 178 176 176 178 182 190 192 186 187 199 197 177 22 27 145 172 193 237 288 309 320 326 328 327 325 323 317 311 307 283 275 269 280 286 285 281 276 268 264
181 190 184 179 172 170 174 181 182 190 193 184 185 182 166 159 20 19 112 176 223 275 302 312 321 327 334 335 339 340 339 332 322 302 290 294 300 299 296 294 289 280 272
197 199 189 181 175 168 169 179 180 186 187 176 174 167 143 86 351 335 295 274 286 298 314 329 345 1 11 10 11 11 7 0 336 315 299 312 320 321 322 321 316 304 293
202 200 196 193 184 171 176 162 162 168 168 155 149 146 128 104 345 314 313 317 329 342 353 14 31 36 39 30 26 29 20 7 2 341 336 344 344 339 339 343 344 341 331
203 203 200 198 186 174 166 148 152 153 149 150 157 154 130 100 33 15 20 5 16 30 42 47 49 41 39 36 30 28 21 18 7 356 2 18 22 22 24 27 28 26 24
197 204 203 200 189 178 164 159 160 158 154 160 169 159 132 105 75 62 56 45 48 54 61 56 55 46 42 38 34 31 23 15 8 5 20 37 41 43 43 40 36 34 33
212 209 195 192 192 181 167 162 163 168 167 167 161 155 136 119 105 89 74 66 59 59 62 61 56 48 38 30 28 31 21 12 16 18 22 41 45 42 39 34 31 31 29
226 221 196 188 183 174 171 167 168 165 152 142 144 141 132 122 115 101 85 72 63 61 63 62 58 46 34 25 25 28 23 22 29 34 38 39 41 38 35 30 26 24 22
237 220 193 184 171 169 167 165 158 148 137 131 125 122 118 115 111 101 90 78 64 61 65 58 51 43 31 20 15 23 24 33 43 47 50 50 39 37 33 28 22 21 17
231 202 183 176 167 161 152 142 133 129 128 123 115 110 109 108 107 99 93 82 68 59 56 55 32 31 19 6 350 5 20 33 51 62 62 63 51 45 31 25 18 15 11
209 178 162 157 157 147 132 121 115 115 112 112 110 109 107 102 101 100 93 84 74 61 45 45 41 35 16 353 332 348 11 8 55 68 68 70 54 51 39 19 13 7 2
175 155 144 146 146 132 122 115 108 99 95 93 98 104 106 104 104 101 90 79 72 64 43 36 40 32 20 348 329 331 333 318 6 48 58 61 45 42 36 16 360 349 352
153 147 148 151 147 140 135 131 126 116 107 95 92 99 104 106 102 95 93 80 74 73 59 41 36 24 11 357 354 336 336 339 293 287 6 348 17 27 21 359 339 323 327
167 155 151 151 151 143 136 126 119 118 106 92 94 92 97 101 98 95 93 89 84 82 62 47 43 36 12 17 21 0 347 339 337 344 327 312 9 17 360 339 320 312 308
177 164 154 150 146 136 128 118 116 106 103 103 100 86 82 92 91 95 96 94 83 80 73 59 50 55 18 0 34 51 18 309 306 310 307 327 356 353 328 314 311 308 300
176 156 147 147 145 143 140 141 143 142 140 141 132 114 94 87 92 93 93 89 83 78 74 63 62 56 59 9 344 9 228 232 281 308 298 299 323 319 301 310 304 293 288
155 152 148 144 148 151 150 149 144 131 120 120 115 110 98 86 86 89 88 85 81 77 75 64 58 53 82 108 315 313 314 296 248 271 291 304 306 279 287 283 281 282 283
148 150 150 148 150 151 146 145 142 137 136 136 132 123 111 97 83 84 86 83 80 76 70 62 55 48 40 349 278 255 249 269 277 270 283 304 304 291 284 279 278 281 282